Location: The Saddle
(36.8333°N, 80.3417°W)
Time: 15:06:31
(UTC-05:00)

A-11 Canister half - Pass Details

Date: 12 December 2023
Orbit: 1526 x 1682 km, 47.3° (Epoch: 01 March)

Event Time Altitude Azimuth Distance (km) Brightness Sun altitude
Rises 20:35:24 0° 287° (WNW) 4,933 12.4 -41.1°
Reaches altitude 10° 20:38:48 10° 293° (WNW) 3,946 11.7 -41.8°
Enters shadow 20:46:30 43° 337° (NNW) 2,227 9.8 -43.4°
Maximum altitude 20:48:30 47° 5° (N) 2,113 - -43.8°
Drops below altitude 10° 20:58:02 10° 78° (ENE) 3,883 - -45.7°
Sets 21:01:21 0° 84° (E) 4,849 - -46.3°
